GLO1554 SBGR-SBSG

Flight info

Callsign GLO1554
Flight time 2h 42m
Altitude 37000
Route VUMEV UZ14 ENVOG UZ1 LODOT UZ72 TOGUN
Aircraft B738/M-SDFGIKLORWXY/LB1

Departure

Time 2026-05-07 23:26
Airport São Paulo/Guarulhos–Governor André Franco Montoro International Airport (SBGR)

Arrival

Time 2026-05-08 02:08
Airport Rio Grande do Norte/São Gonçalo do Amarante–Governador Aluízio Alves International Airport (SBSG)
Time Latitude Longitude Altitude Speed Heading
2026-05-07 23:02 -23.42818 -46.48352 2448 ft 0 kts 84°
2026-05-07 23:15 -23.42819 -46.48361 2448 ft 2 kts 84°
2026-05-07 23:15 -23.42820 -46.48378 2448 ft 2 kts 84°
2026-05-07 23:16 -23.42822 -46.48394 2448 ft 2 kts 85°
2026-05-07 23:16 -23.42823 -46.48410 2447 ft 2 kts 84°
2026-05-07 23:16 -23.42825 -46.48426 2447 ft 2 kts 85°
2026-05-07 23:16 -23.42825 -46.48442 2447 ft 2 kts 118°
2026-05-07 23:17 -23.42814 -46.48451 2447 ft 1 kts 172°
2026-05-07 23:17 -23.42809 -46.48451 2447 ft 1 kts 183°
2026-05-07 23:17 -23.42806 -46.48451 2447 ft 0 kts 180°
2026-05-07 23:19 -23.42818 -46.48451 2447 ft 3 kts 180°
2026-05-07 23:19 -23.42853 -46.48450 2447 ft 6 kts 179°
2026-05-07 23:19 -23.42910 -46.48450 2447 ft 9 kts 179°
2026-05-07 23:20 -23.42968 -46.48449 2447 ft 5 kts 182°
2026-05-07 23:20 -23.43014 -46.48450 2448 ft 8 kts 177°
2026-05-07 23:20 -23.43076 -46.48437 2448 ft 10 kts 164°
2026-05-07 23:20 -23.43152 -46.48412 2449 ft 12 kts 163°
2026-05-07 23:21 -23.43241 -46.48383 2450 ft 14 kts 163°
2026-05-07 23:21 -23.43274 -46.48373 2451 ft 0 kts 165°
2026-05-07 23:22 -23.43276 -46.48373 2451 ft 0 kts 165°
2026-05-07 23:22 -23.43282 -46.48371 2451 ft 0 kts 164°
2026-05-07 23:22 -23.43284 -46.48370 2451 ft 0 kts 164°
2026-05-07 23:22 -23.43294 -46.48367 2451 ft 2 kts 165°
2026-05-07 23:23 -23.43322 -46.48358 2452 ft 5 kts 163°
2026-05-07 23:23 -23.43362 -46.48346 2453 ft 6 kts 163°
2026-05-07 23:23 -23.43410 -46.48322 2454 ft 8 kts 131°
2026-05-07 23:23 -23.43412 -46.48273 2454 ft 0 kts 72°
2026-05-07 23:24 -23.43408 -46.48259 2455 ft 16 kts 72°
2026-05-07 23:25 -23.43307 -46.47887 2457 ft 83 kts 73°
2026-05-07 23:25 -23.43085 -46.47066 2453 ft 141 kts 73°
2026-05-07 23:25 -23.42760 -46.45867 2454 ft 188 kts 73°
2026-05-07 23:25 -23.42388 -46.44453 2959 ft 193 kts 71°
2026-05-07 23:26 -23.42002 -46.43080 3724 ft 191 kts 68°
2026-05-07 23:26 -23.41558 -46.41684 4259 ft 200 kts 67°
2026-05-07 23:26 -23.41096 -46.40209 4670 ft 213 kts 68°
2026-05-07 23:26 -23.40633 -46.38634 5085 ft 226 kts 68°
2026-05-07 23:27 -23.38656 -46.35998 5925 ft 239 kts 24°
2026-05-07 23:27 -23.37127 -46.35158 6389 ft 251 kts 26°
2026-05-07 23:27 -23.35600 -46.34146 6890 ft 262 kts 30°
2026-05-07 23:28 -23.34094 -46.32999 7504 ft 268 kts 32°
2026-05-07 23:28 -23.32568 -46.31788 8121 ft 272 kts 33°
2026-05-07 23:28 -23.31039 -46.30577 8748 ft 276 kts 32°
2026-05-07 23:28 -23.29463 -46.29340 9402 ft 278 kts 32°
2026-05-07 23:29 -23.27900 -46.28122 10034 ft 281 kts 32°
2026-05-07 23:29 -23.26273 -46.26861 10413 ft 294 kts 33°
2026-05-07 23:29 -23.24550 -46.25528 10751 ft 308 kts 33°
2026-05-07 23:29 -23.22765 -46.24146 11048 ft 323 kts 33°
2026-05-07 23:30 -23.20896 -46.22696 11311 ft 338 kts 33°
2026-05-07 23:30 -23.18918 -46.21162 11551 ft 353 kts 34°
2026-05-07 23:30 -23.16886 -46.19587 11763 ft 366 kts 34°
2026-05-07 23:30 -23.14790 -46.17961 12198 ft 372 kts 34°
2026-05-07 23:31 -23.12669 -46.16316 12702 ft 376 kts 34°
2026-05-07 23:31 -23.10527 -46.14654 13269 ft 378 kts 34°
2026-05-07 23:31 -23.08367 -46.12979 13798 ft 382 kts 34°
2026-05-07 23:31 -23.06212 -46.11310 14327 ft 385 kts 34°
2026-05-07 23:32 -23.04020 -46.09613 14868 ft 388 kts 34°
2026-05-07 23:32 -23.01809 -46.07902 15414 ft 391 kts 34°
2026-05-07 23:32 -22.99595 -46.06189 15928 ft 395 kts 35°
2026-05-07 23:32 -22.97343 -46.04448 16414 ft 399 kts 35°
2026-05-07 23:33 -22.95056 -46.02681 16948 ft 402 kts 35°
2026-05-07 23:33 -22.92768 -46.00915 17448 ft 404 kts 35°
2026-05-07 23:33 -22.90477 -45.99146 17896 ft 409 kts 34°
2026-05-07 23:33 -22.88098 -45.97312 18302 ft 415 kts 34°
2026-05-07 23:34 -22.85703 -45.95485 18754 ft 419 kts 34°
2026-05-07 23:34 -22.83314 -45.93682 19147 ft 424 kts 34°
2026-05-07 23:34 -22.80850 -45.91834 19567 ft 428 kts 33°
2026-05-07 23:34 -22.78411 -45.90005 19964 ft 433 kts 33°
2026-05-07 23:35 -22.75890 -45.88114 20356 ft 438 kts 33°
2026-05-07 23:35 -22.73388 -45.86238 20751 ft 442 kts 33°
2026-05-07 23:35 -22.70854 -45.84336 21134 ft 446 kts 33°
2026-05-07 23:35 -22.68278 -45.82403 21507 ft 451 kts 33°
2026-05-07 23:36 -22.65703 -45.80471 21897 ft 455 kts 33°
2026-05-07 23:36 -22.63097 -45.78515 22281 ft 458 kts 33°
2026-05-07 23:36 -22.60459 -45.76535 22655 ft 462 kts 33°
2026-05-07 23:36 -22.57806 -45.74545 23013 ft 467 kts 33°
2026-05-07 23:37 -22.55114 -45.72527 23444 ft 469 kts 33°
2026-05-07 23:37 -22.52432 -45.70515 23800 ft 473 kts 33°
2026-05-07 23:37 -22.49700 -45.68467 24248 ft 475 kts 33°
2026-05-07 23:37 -22.46968 -45.66420 24654 ft 478 kts 33°
2026-05-07 23:38 -22.44234 -45.64373 24999 ft 482 kts 33°
2026-05-07 23:38 -22.41473 -45.62307 25370 ft 485 kts 33°
2026-05-07 23:38 -22.38702 -45.60235 25700 ft 489 kts 33°
2026-05-07 23:38 -22.35892 -45.58134 26036 ft 493 kts 34°
2026-05-07 23:39 -22.33036 -45.55999 26457 ft 495 kts 33°
2026-05-07 23:39 -22.30216 -45.53892 26858 ft 496 kts 34°
2026-05-07 23:39 -22.27365 -45.51764 27365 ft 496 kts 34°
2026-05-07 23:39 -22.24542 -45.49657 27857 ft 495 kts 34°
2026-05-07 23:40 -22.21708 -45.47542 28374 ft 494 kts 34°
2026-05-07 23:40 -22.18894 -45.45443 28878 ft 493 kts 34°
2026-05-07 23:40 -22.16090 -45.43352 29398 ft 491 kts 34°
2026-05-07 23:40 -22.13275 -45.41254 29931 ft 489 kts 34°
2026-05-07 23:41 -22.10485 -45.39176 30353 ft 489 kts 34°
2026-05-07 23:41 -22.07659 -45.37073 30732 ft 491 kts 34°
2026-05-07 23:41 -22.04843 -45.34980 31127 ft 491 kts 34°
2026-05-07 23:41 -22.02008 -45.32834 31469 ft 493 kts 36°
2026-05-07 23:42 -21.99270 -45.30622 31879 ft 492 kts 38°
2026-05-07 23:42 -21.96590 -45.28361 32290 ft 492 kts 39°
2026-05-07 23:42 -21.93897 -45.26046 32652 ft 492 kts 39°
2026-05-07 23:42 -21.91243 -45.23754 32999 ft 492 kts 39°
2026-05-07 23:43 -21.88533 -45.21418 33357 ft 492 kts 39°
2026-05-07 23:43 -21.85859 -45.19123 33702 ft 493 kts 39°
2026-05-07 23:43 -21.83198 -45.16852 34050 ft 493 kts 38°
2026-05-07 23:43 -21.80487 -45.14550 34390 ft 493 kts 38°
2026-05-07 23:44 -21.77810 -45.12284 34689 ft 493 kts 38°
2026-05-07 23:44 -21.75092 -45.09997 34974 ft 494 kts 38°
2026-05-07 23:44 -21.72391 -45.07739 35234 ft 494 kts 38°
2026-05-07 23:44 -21.69686 -45.05472 35502 ft 495 kts 38°
2026-05-07 23:45 -21.66936 -45.03158 35791 ft 495 kts 38°
2026-05-07 23:45 -21.64241 -45.00889 36060 ft 496 kts 38°
2026-05-07 23:45 -21.61487 -44.98573 36285 ft 497 kts 38°
2026-05-07 23:45 -21.58725 -44.96252 36541 ft 498 kts 38°
2026-05-07 23:46 -21.55973 -44.93942 36797 ft 498 kts 38°
2026-05-07 23:46 -21.53215 -44.91630 37034 ft 499 kts 38°
2026-05-07 23:46 -21.50429 -44.89296 37174 ft 500 kts 38°
2026-05-07 23:46 -21.47636 -44.86958 37173 ft 505 kts 38°
2026-05-07 23:47 -21.42008 -44.82249 37172 ft 512 kts 38°
2026-05-07 23:47 -21.36337 -44.77512 37171 ft 519 kts 38°
2026-05-07 23:48 -21.30612 -44.72732 37168 ft 516 kts 38°
2026-05-07 23:48 -21.24887 -44.67955 37167 ft 518 kts 39°
2026-05-07 23:49 -21.19189 -44.63206 37167 ft 516 kts 38°
2026-05-07 23:49 -21.13484 -44.58455 37170 ft 517 kts 39°
2026-05-07 23:50 -21.07807 -44.53733 37171 ft 517 kts 39°
2026-05-07 23:50 -21.02103 -44.48992 37173 ft 516 kts 38°
2026-05-07 23:51 -20.96398 -44.44252 37173 ft 518 kts 39°
2026-05-07 23:51 -20.90660 -44.39498 37179 ft 517 kts 39°
2026-05-07 23:52 -20.84969 -44.34790 37184 ft 517 kts 38°
2026-05-07 23:52 -20.79253 -44.30063 37190 ft 517 kts 38°
2026-05-07 23:53 -20.73550 -44.25351 37186 ft 516 kts 38°
2026-05-07 23:53 -20.67852 -44.20645 37170 ft 516 kts 38°
2026-05-07 23:54 -20.62147 -44.15936 37163 ft 516 kts 39°
2026-05-07 23:54 -20.56474 -44.11188 37161 ft 516 kts 39°
2026-05-07 23:55 -20.50831 -44.06417 37161 ft 516 kts 39°
2026-05-07 23:55 -20.45142 -44.01675 37164 ft 517 kts 39°
2026-05-07 23:56 -20.39435 -43.97004 37172 ft 516 kts 39°
2026-05-07 23:56 -20.33707 -43.92341 37191 ft 517 kts 39°
2026-05-07 23:57 -20.27993 -43.87688 37189 ft 517 kts 38°
2026-05-07 23:57 -20.22269 -43.83025 37189 ft 518 kts 39°
2026-05-07 23:58 -20.16521 -43.78341 37194 ft 517 kts 39°
2026-05-07 23:58 -20.10832 -43.73708 37201 ft 518 kts 39°
2026-05-07 23:59 -20.05071 -43.69020 37209 ft 518 kts 39°
2026-05-07 23:59 -19.99376 -43.64393 37207 ft 515 kts 39°
2026-05-08 00:00 -19.93633 -43.59727 37202 ft 517 kts 39°
2026-05-08 00:00 -19.87906 -43.55079 37199 ft 515 kts 39°
2026-05-08 00:01 -19.82206 -43.50449 37199 ft 516 kts 39°
2026-05-08 00:01 -19.76495 -43.45805 37200 ft 516 kts 39°
2026-05-08 00:02 -19.70746 -43.41134 37195 ft 518 kts 39°
2026-05-08 00:02 -19.65013 -43.36483 37198 ft 517 kts 40°
2026-05-08 00:03 -19.59269 -43.31830 37194 ft 518 kts 39°
2026-05-08 00:03 -19.53570 -43.27211 37193 ft 519 kts 39°
2026-05-08 00:04 -19.47838 -43.22572 37190 ft 518 kts 39°
2026-05-08 00:04 -19.42048 -43.17892 37189 ft 517 kts 39°
2026-05-08 00:05 -19.36276 -43.13231 37180 ft 519 kts 40°
2026-05-08 00:05 -19.30520 -43.08587 37171 ft 517 kts 39°
2026-05-08 00:06 -19.24755 -43.03939 37167 ft 517 kts 40°
2026-05-08 00:06 -19.19015 -42.99315 37165 ft 518 kts 40°
2026-05-08 00:07 -19.13274 -42.94694 37159 ft 517 kts 40°
2026-05-08 00:07 -19.07573 -42.90111 37150 ft 516 kts 40°
2026-05-08 00:08 -19.01826 -42.85496 37145 ft 515 kts 40°
2026-05-08 00:08 -18.96110 -42.80909 37147 ft 516 kts 40°
2026-05-08 00:09 -18.90403 -42.76333 37158 ft 515 kts 40°
2026-05-08 00:09 -18.84678 -42.71746 37171 ft 515 kts 40°
2026-05-08 00:10 -18.78932 -42.67149 37174 ft 515 kts 40°
2026-05-08 00:10 -18.73209 -42.62576 37181 ft 515 kts 40°
2026-05-08 00:11 -18.67505 -42.58021 37175 ft 514 kts 40°
2026-05-08 00:11 -18.61787 -42.53457 37160 ft 515 kts 40°
2026-05-08 00:12 -18.56067 -42.48894 37153 ft 515 kts 40°
2026-05-08 00:12 -18.50340 -42.44329 37142 ft 516 kts 40°
2026-05-08 00:13 -18.44612 -42.39768 37141 ft 515 kts 40°
2026-05-08 00:13 -18.38838 -42.35173 37145 ft 515 kts 40°
2026-05-08 00:14 -18.33092 -42.30605 37143 ft 515 kts 40°
2026-05-08 00:14 -18.27349 -42.26044 37153 ft 514 kts 40°
2026-05-08 00:15 -18.21598 -42.21482 37144 ft 516 kts 40°
2026-05-08 00:15 -18.15863 -42.16940 37130 ft 513 kts 40°
2026-05-08 00:16 -18.10136 -42.12405 37116 ft 514 kts 40°
2026-05-08 00:16 -18.04378 -42.07849 37116 ft 514 kts 40°
2026-05-08 00:17 -17.98612 -42.03291 37115 ft 513 kts 40°
2026-05-08 00:17 -17.92903 -41.98780 37122 ft 514 kts 40°
2026-05-08 00:18 -17.87168 -41.94254 37129 ft 513 kts 40°
2026-05-08 00:18 -17.81425 -41.89726 37133 ft 513 kts 40°
2026-05-08 00:19 -17.75676 -41.85195 37133 ft 514 kts 40°
2026-05-08 00:19 -17.69944 -41.80685 37133 ft 515 kts 40°
2026-05-08 00:20 -17.64214 -41.76176 37127 ft 514 kts 40°
2026-05-08 00:20 -17.58502 -41.71687 37119 ft 514 kts 40°
2026-05-08 00:21 -17.52723 -41.67146 37114 ft 515 kts 40°
2026-05-08 00:21 -17.46989 -41.62647 37112 ft 514 kts 40°
2026-05-08 00:22 -17.41036 -41.58415 37109 ft 516 kts 31°
2026-05-08 00:22 -17.34304 -41.55622 37111 ft 520 kts 17°
2026-05-08 00:23 -17.27279 -41.53788 37115 ft 520 kts 13°
2026-05-08 00:23 -17.20159 -41.52201 37119 ft 521 kts 12°
2026-05-08 00:24 -17.13009 -41.50619 37117 ft 519 kts 13°
2026-05-08 00:24 -17.05900 -41.49006 37113 ft 520 kts 13°
2026-05-08 00:25 -16.98800 -41.47369 37117 ft 520 kts 13°
2026-05-08 00:25 -16.91742 -41.45731 37114 ft 520 kts 13°
2026-05-08 00:26 -16.84647 -41.44080 37115 ft 520 kts 13°
2026-05-08 00:26 -16.77497 -41.42418 37112 ft 521 kts 13°
2026-05-08 00:27 -16.70445 -41.40781 37113 ft 521 kts 13°
2026-05-08 00:27 -16.63364 -41.39133 37107 ft 520 kts 13°
2026-05-08 00:28 -16.56229 -41.37467 37102 ft 520 kts 13°
2026-05-08 00:28 -16.49182 -41.35823 37096 ft 519 kts 13°
2026-05-08 00:29 -16.42105 -41.34174 37108 ft 520 kts 13°
2026-05-08 00:29 -16.34986 -41.32515 37112 ft 520 kts 13°
2026-05-08 00:30 -16.27890 -41.30864 37124 ft 520 kts 13°
2026-05-08 00:30 -16.20817 -41.29221 37132 ft 520 kts 12°
2026-05-08 00:31 -16.13706 -41.27571 37136 ft 520 kts 13°
2026-05-08 00:31 -16.06634 -41.25931 37140 ft 519 kts 12°
2026-05-08 00:32 -15.99573 -41.24294 37143 ft 519 kts 12°
2026-05-08 00:32 -15.92492 -41.22654 37151 ft 518 kts 13°
2026-05-08 00:33 -15.85431 -41.21018 37155 ft 518 kts 12°
2026-05-08 00:33 -15.78343 -41.19378 37159 ft 520 kts 12°
2026-05-08 00:34 -15.71272 -41.17740 37156 ft 520 kts 13°
2026-05-08 00:34 -15.64178 -41.16098 37147 ft 520 kts 12°
2026-05-08 00:35 -15.57106 -41.14462 37137 ft 519 kts 12°
2026-05-08 00:35 -15.50033 -41.12826 37133 ft 518 kts 13°
2026-05-08 00:36 -15.42959 -41.11216 37136 ft 520 kts 12°
2026-05-08 00:36 -15.35891 -41.09762 37141 ft 518 kts 10°
2026-05-08 00:37 -15.28762 -41.08360 37145 ft 518 kts 10°
2026-05-08 00:38 -15.18158 -41.06264 37151 ft 517 kts 11°
2026-05-08 00:38 -15.11051 -41.04841 37153 ft 516 kts 11°
2026-05-08 00:39 -15.03994 -41.03421 37155 ft 517 kts 11°
2026-05-08 00:39 -14.96902 -41.01990 37155 ft 517 kts 11°
2026-05-08 00:40 -14.89823 -41.00561 37149 ft 517 kts 11°
2026-05-08 00:40 -14.82706 -40.99128 37144 ft 516 kts 11°
2026-05-08 00:41 -14.75559 -40.97691 37140 ft 518 kts 11°
2026-05-08 00:41 -14.68502 -40.96271 37134 ft 516 kts 11°
2026-05-08 00:42 -14.61435 -40.94852 37126 ft 515 kts 10°
2026-05-08 00:42 -14.54349 -40.93431 37110 ft 514 kts 10°
2026-05-08 00:43 -14.47326 -40.92024 37104 ft 513 kts 10°
2026-05-08 00:43 -14.40303 -40.90615 37104 ft 514 kts 10°
2026-05-08 00:44 -14.33275 -40.89207 37103 ft 513 kts 10°
2026-05-08 00:44 -14.26257 -40.87802 37103 ft 513 kts 10°
2026-05-08 00:45 -14.19217 -40.86395 37094 ft 514 kts 10°
2026-05-08 00:45 -14.12199 -40.84992 37085 ft 512 kts 10°
2026-05-08 00:46 -14.05194 -40.83591 37083 ft 511 kts 10°
2026-05-08 00:46 -13.98190 -40.82193 37091 ft 512 kts 10°
2026-05-08 00:47 -13.91156 -40.80790 37094 ft 511 kts 10°
2026-05-08 00:47 -13.84178 -40.79396 37095 ft 510 kts 10°
2026-05-08 00:48 -13.77188 -40.77885 37091 ft 510 kts 13°
2026-05-08 00:48 -13.70519 -40.75472 37090 ft 510 kts 24°
2026-05-08 00:49 -13.64178 -40.72106 37096 ft 510 kts 30°
2026-05-08 00:49 -13.58071 -40.68427 37096 ft 509 kts 31°
2026-05-08 00:50 -13.52015 -40.64682 37105 ft 509 kts 31°
2026-05-08 00:50 -13.45955 -40.60949 37111 ft 507 kts 31°
2026-05-08 00:51 -13.39868 -40.57234 37120 ft 507 kts 31°
2026-05-08 00:51 -13.33778 -40.53538 37136 ft 506 kts 31°
2026-05-08 00:52 -13.27725 -40.49878 37152 ft 505 kts 30°
2026-05-08 00:52 -13.21644 -40.46205 37145 ft 506 kts 30°
2026-05-08 00:53 -13.15566 -40.42539 37125 ft 504 kts 30°
2026-05-08 00:53 -13.09546 -40.38910 37113 ft 503 kts 30°
2026-05-08 00:54 -13.03481 -40.35255 37105 ft 503 kts 30°
2026-05-08 00:54 -12.97403 -40.31593 37100 ft 502 kts 30°
2026-05-08 00:55 -12.91359 -40.27956 37096 ft 503 kts 30°
2026-05-08 00:55 -12.85321 -40.24322 37088 ft 502 kts 30°
2026-05-08 00:56 -12.79290 -40.20693 37083 ft 503 kts 30°
2026-05-08 00:56 -12.73276 -40.17078 37080 ft 500 kts 30°
2026-05-08 00:57 -12.67226 -40.13443 37081 ft 502 kts 29°
2026-05-08 00:57 -12.61210 -40.09831 37076 ft 500 kts 29°
2026-05-08 00:58 -12.55219 -40.06234 37069 ft 500 kts 29°
2026-05-08 00:58 -12.49219 -40.02634 37076 ft 500 kts 29°
2026-05-08 00:59 -12.43201 -39.99028 37068 ft 499 kts 29°
2026-05-08 00:59 -12.37201 -39.95434 37061 ft 500 kts 29°
2026-05-08 01:00 -12.31180 -39.91830 37060 ft 500 kts 29°
2026-05-08 01:00 -12.25168 -39.88232 37060 ft 500 kts 29°
2026-05-08 01:01 -12.19171 -39.84645 37066 ft 500 kts 29°
2026-05-08 01:01 -12.13137 -39.81039 37060 ft 500 kts 29°
2026-05-08 01:02 -12.07110 -39.77438 37062 ft 499 kts 29°
2026-05-08 01:02 -12.01131 -39.73867 37058 ft 498 kts 29°
2026-05-08 01:03 -11.95135 -39.70286 37062 ft 499 kts 28°
2026-05-08 01:03 -11.89128 -39.66702 37063 ft 499 kts 28°
2026-05-08 01:04 -11.83113 -39.63117 37066 ft 498 kts 29°
2026-05-08 01:04 -11.77121 -39.59551 37067 ft 498 kts 28°
2026-05-08 01:05 -11.71121 -39.55973 37066 ft 497 kts 28°
2026-05-08 01:05 -11.65097 -39.52378 37065 ft 498 kts 28°
2026-05-08 01:06 -11.59104 -39.48805 37065 ft 497 kts 28°
2026-05-08 01:06 -11.53135 -39.45246 37067 ft 496 kts 28°
2026-05-08 01:07 -11.47113 -39.41658 37068 ft 496 kts 28°
2026-05-08 01:07 -11.41120 -39.38089 37065 ft 497 kts 28°
2026-05-08 01:08 -11.35118 -39.34518 37064 ft 495 kts 28°
2026-05-08 01:08 -11.29137 -39.30961 37061 ft 494 kts 28°
2026-05-08 01:09 -11.23219 -39.27444 37059 ft 494 kts 28°
2026-05-08 01:09 -11.17217 -39.23879 37054 ft 495 kts 28°
2026-05-08 01:10 -11.11263 -39.20345 37053 ft 494 kts 27°
2026-05-08 01:10 -11.05267 -39.16785 37050 ft 494 kts 28°
2026-05-08 01:11 -10.99311 -39.13253 37050 ft 494 kts 28°
2026-05-08 01:11 -10.93392 -39.09742 37050 ft 493 kts 27°
2026-05-08 01:12 -10.87448 -39.06218 37050 ft 491 kts 27°
2026-05-08 01:12 -10.81525 -39.02709 37048 ft 491 kts 27°
2026-05-08 01:13 -10.75604 -38.99202 37050 ft 490 kts 27°
2026-05-08 01:13 -10.69721 -38.95720 37056 ft 491 kts 27°
2026-05-08 01:14 -10.63803 -38.92218 37061 ft 489 kts 27°
2026-05-08 01:14 -10.57918 -38.88738 37066 ft 488 kts 27°
2026-05-08 01:15 -10.52028 -38.85257 37066 ft 487 kts 27°
2026-05-08 01:15 -10.46146 -38.81782 37069 ft 486 kts 27°
2026-05-08 01:16 -10.40286 -38.78321 37070 ft 485 kts 27°
2026-05-08 01:16 -10.34394 -38.74844 37069 ft 486 kts 27°
2026-05-08 01:17 -10.28540 -38.71390 37070 ft 485 kts 27°
2026-05-08 01:17 -10.22672 -38.67927 37071 ft 484 kts 27°
2026-05-08 01:18 -10.16867 -38.64505 37066 ft 483 kts 27°
2026-05-08 01:18 -10.11000 -38.61048 37065 ft 482 kts 27°
2026-05-08 01:19 -10.05198 -38.57630 37058 ft 482 kts 27°
2026-05-08 01:19 -9.99356 -38.54190 37054 ft 480 kts 27°
2026-05-08 01:20 -9.93499 -38.50744 37052 ft 480 kts 27°
2026-05-08 01:20 -9.87693 -38.47329 37047 ft 480 kts 27°
2026-05-08 01:21 -9.81889 -38.43917 37042 ft 479 kts 27°
2026-05-08 01:21 -9.76103 -38.40516 37037 ft 479 kts 27°
2026-05-08 01:22 -9.70340 -38.37141 37032 ft 477 kts 27°
2026-05-08 01:22 -9.64537 -38.33763 37032 ft 478 kts 26°
2026-05-08 01:23 -9.58736 -38.30389 37030 ft 477 kts 26°
2026-05-08 01:23 -9.52942 -38.27018 37026 ft 476 kts 27°
2026-05-08 01:24 -9.47183 -38.23668 37029 ft 476 kts 26°
2026-05-08 01:24 -9.41433 -38.20324 37029 ft 475 kts 26°
2026-05-08 01:25 -9.35651 -38.16963 37030 ft 475 kts 26°
2026-05-08 01:25 -9.29848 -38.13591 37035 ft 476 kts 26°
2026-05-08 01:26 -9.24098 -38.10250 37043 ft 475 kts 26°
2026-05-08 01:26 -9.18305 -38.06884 37051 ft 473 kts 26°
2026-05-08 01:27 -9.12573 -38.03554 37060 ft 473 kts 26°
2026-05-08 01:27 -9.06878 -38.00234 37069 ft 473 kts 26°
2026-05-08 01:28 -9.01164 -37.96895 37073 ft 472 kts 27°
2026-05-08 01:28 -8.95439 -37.93551 37068 ft 472 kts 27°
2026-05-08 01:29 -8.89733 -37.90222 37061 ft 472 kts 26°
2026-05-08 01:29 -8.83999 -37.86876 37054 ft 472 kts 26°
2026-05-08 01:30 -8.78259 -37.83530 37050 ft 472 kts 26°
2026-05-08 01:30 -8.72580 -37.80221 37048 ft 473 kts 26°
2026-05-08 01:31 -8.66879 -37.76900 37046 ft 471 kts 26°
2026-05-08 01:31 -8.61163 -37.73571 37045 ft 471 kts 26°
2026-05-08 01:32 -8.55437 -37.70239 37047 ft 470 kts 26°
2026-05-08 01:32 -8.49754 -37.66931 37048 ft 469 kts 26°
2026-05-08 01:33 -8.44090 -37.63637 37051 ft 469 kts 26°
2026-05-08 01:33 -8.38436 -37.60350 37052 ft 469 kts 26°
2026-05-08 01:34 -8.32722 -37.57028 37051 ft 469 kts 26°
2026-05-08 01:34 -8.26997 -37.53702 37052 ft 469 kts 26°
2026-05-08 01:35 -8.21326 -37.50408 37059 ft 468 kts 26°
2026-05-08 01:35 -8.15654 -37.47113 37067 ft 468 kts 26°
2026-05-08 01:36 -8.09979 -37.43820 37077 ft 468 kts 26°
2026-05-08 01:36 -8.04302 -37.40525 37083 ft 467 kts 26°
2026-05-08 01:37 -7.98593 -37.37213 37087 ft 467 kts 26°
2026-05-08 01:37 -7.92963 -37.33948 37080 ft 467 kts 26°
2026-05-08 01:38 -7.87241 -37.30631 37072 ft 466 kts 26°
2026-05-08 01:38 -7.81621 -37.27374 37069 ft 466 kts 26°
2026-05-08 01:39 -7.75956 -37.24092 37059 ft 466 kts 26°
2026-05-08 01:39 -7.70317 -37.20825 37053 ft 466 kts 26°
2026-05-08 01:40 -7.64676 -37.17558 37047 ft 465 kts 26°
2026-05-08 01:40 -7.59013 -37.14278 37049 ft 465 kts 26°
2026-05-08 01:41 -7.53409 -37.11032 37051 ft 455 kts 26°
2026-05-08 01:41 -7.47898 -37.07840 37049 ft 452 kts 26°
2026-05-08 01:42 -7.42399 -37.04664 37049 ft 452 kts 26°
2026-05-08 01:42 -7.36871 -37.01471 37049 ft 457 kts 26°
2026-05-08 01:43 -7.31311 -36.98260 37049 ft 458 kts 26°
2026-05-08 01:43 -7.25784 -36.95068 37046 ft 455 kts 26°
2026-05-08 01:44 -7.20236 -36.91865 37044 ft 458 kts 26°
2026-05-08 01:44 -7.14667 -36.88653 37041 ft 457 kts 26°
2026-05-08 01:45 -7.09202 -36.85500 37039 ft 456 kts 26°
2026-05-08 01:45 -7.03635 -36.82284 37004 ft 458 kts 26°
2026-05-08 01:45 -7.00865 -36.80681 36768 ft 452 kts 26°
2026-05-08 01:46 -6.98135 -36.79101 35986 ft 451 kts 26°
2026-05-08 01:46 -6.95395 -36.77514 35477 ft 446 kts 26°
2026-05-08 01:46 -6.92741 -36.75978 34546 ft 445 kts 26°
2026-05-08 01:46 -6.90050 -36.74424 33111 ft 453 kts 26°
2026-05-08 01:47 -6.87252 -36.72814 31678 ft 462 kts 26°
2026-05-08 01:47 -6.84495 -36.71226 31010 ft 459 kts 26°
2026-05-08 01:47 -6.81747 -36.69639 30689 ft 449 kts 26°
2026-05-08 01:48 -6.76290 -36.66486 29745 ft 456 kts 26°
2026-05-08 01:48 -6.73524 -36.64893 29215 ft 457 kts 26°
2026-05-08 01:48 -6.70788 -36.63314 28690 ft 453 kts 26°
2026-05-08 01:48 -6.68069 -36.61743 28181 ft 448 kts 26°
2026-05-08 01:49 -6.65393 -36.60183 27668 ft 445 kts 28°
2026-05-08 01:49 -6.62817 -36.58447 27148 ft 443 kts 34°
2026-05-08 01:49 -6.60510 -36.56404 26624 ft 442 kts 43°
2026-05-08 01:49 -6.58461 -36.54104 26096 ft 440 kts 47°
2026-05-08 01:50 -6.56558 -36.51698 25570 ft 437 kts 50°
2026-05-08 01:50 -6.54750 -36.49281 25050 ft 433 kts 51°
2026-05-08 01:50 -6.52965 -36.46848 24529 ft 429 kts 51°
2026-05-08 01:50 -6.51221 -36.44464 24010 ft 424 kts 51°
2026-05-08 01:51 -6.49467 -36.42074 23491 ft 420 kts 50°
2026-05-08 01:51 -6.47741 -36.39735 22981 ft 416 kts 50°
2026-05-08 01:51 -6.46004 -36.37394 22458 ft 411 kts 50°
2026-05-08 01:51 -6.44301 -36.35107 21952 ft 407 kts 50°
2026-05-08 01:52 -6.42615 -36.32855 21441 ft 403 kts 50°
2026-05-08 01:52 -6.40932 -36.30613 20932 ft 399 kts 50°
2026-05-08 01:52 -6.39265 -36.28395 20423 ft 396 kts 50°
2026-05-08 01:52 -6.37595 -36.26176 19915 ft 392 kts 50°
2026-05-08 01:53 -6.35966 -36.24013 19408 ft 389 kts 51°
2026-05-08 01:53 -6.34339 -36.21855 18900 ft 386 kts 51°
2026-05-08 01:53 -6.32736 -36.19727 18393 ft 383 kts 51°
2026-05-08 01:53 -6.31137 -36.17606 17886 ft 380 kts 51°
2026-05-08 01:54 -6.29541 -36.15487 17378 ft 377 kts 52°
2026-05-08 01:54 -6.27956 -36.13382 16875 ft 374 kts 52°
2026-05-08 01:54 -6.26407 -36.11324 16384 ft 371 kts 52°
2026-05-08 01:54 -6.24859 -36.09268 15887 ft 369 kts 52°
2026-05-08 01:55 -6.23313 -36.07216 15383 ft 367 kts 53°
2026-05-08 01:55 -6.21785 -36.05188 14893 ft 364 kts 53°
2026-05-08 01:55 -6.20255 -36.03160 14390 ft 362 kts 54°
2026-05-08 01:55 -6.18727 -36.01135 13897 ft 360 kts 54°
2026-05-08 01:56 -6.17226 -35.99143 13413 ft 357 kts 54°
2026-05-08 01:56 -6.15730 -35.97157 12923 ft 355 kts 54°
2026-05-08 01:56 -6.14242 -35.95184 12431 ft 353 kts 54°
2026-05-08 01:56 -6.12768 -35.93230 11949 ft 350 kts 54°
2026-05-08 01:57 -6.11300 -35.91287 11477 ft 347 kts 55°
2026-05-08 01:57 -6.09856 -35.89373 11006 ft 344 kts 55°
2026-05-08 01:57 -6.08403 -35.87449 10532 ft 341 kts 55°
2026-05-08 01:57 -6.06991 -35.85578 10241 ft 332 kts 55°
2026-05-08 01:58 -6.05615 -35.83758 10124 ft 318 kts 56°
2026-05-08 01:58 -6.04300 -35.82016 9871 ft 310 kts 55°
2026-05-08 01:58 -6.03011 -35.80306 9447 ft 308 kts 55°
2026-05-08 01:58 -6.01713 -35.78585 9046 ft 306 kts 55°
2026-05-08 01:59 -6.00444 -35.76903 8660 ft 303 kts 55°
2026-05-08 01:59 -5.99179 -35.75226 8277 ft 300 kts 56°
2026-05-08 01:59 -5.97926 -35.73565 7894 ft 297 kts 56°
2026-05-08 01:59 -5.96673 -35.71905 7509 ft 294 kts 56°
2026-05-08 02:00 -5.95437 -35.70271 7131 ft 291 kts 56°
2026-05-08 02:00 -5.94200 -35.68678 6770 ft 288 kts 54°
2026-05-08 02:00 -5.92936 -35.67121 6399 ft 286 kts 54°
2026-05-08 02:00 -5.91678 -35.65591 6039 ft 283 kts 54°
2026-05-08 02:01 -5.90419 -35.64057 5674 ft 280 kts 54°
2026-05-08 02:01 -5.89194 -35.62555 5360 ft 276 kts 54°
2026-05-08 02:01 -5.87995 -35.61081 5227 ft 264 kts 54°
2026-05-08 02:01 -5.86851 -35.59672 5142 ft 252 kts 54°
2026-05-08 02:02 -5.85772 -35.58342 5068 ft 240 kts 54°
2026-05-08 02:02 -5.84738 -35.57087 4990 ft 229 kts 52°
2026-05-08 02:02 -5.83559 -35.56062 4857 ft 224 kts 33°
2026-05-08 02:02 -5.82024 -35.55622 4588 ft 230 kts 12°
2026-05-08 02:03 -5.80429 -35.55479 4302 ft 229 kts
2026-05-08 02:03 -5.78853 -35.55297 4037 ft 227 kts 13°
2026-05-08 02:03 -5.77301 -35.55051 3809 ft 221 kts 15°
2026-05-08 02:03 -5.75845 -35.54659 3633 ft 208 kts 28°
2026-05-08 02:04 -5.74806 -35.53779 3438 ft 190 kts 63°
2026-05-08 02:04 -5.74469 -35.52530 3135 ft 187 kts 88°
2026-05-08 02:04 -5.74577 -35.51239 2870 ft 185 kts 98°
2026-05-08 02:04 -5.74792 -35.49976 2624 ft 182 kts 99°
2026-05-08 02:05 -5.74999 -35.48737 2385 ft 172 kts 99°
2026-05-08 02:05 -5.75180 -35.47605 2151 ft 160 kts 99°
2026-05-08 02:05 -5.75355 -35.46553 1983 ft 145 kts 99°
2026-05-08 02:05 -5.75518 -35.45558 1770 ft 143 kts 99°
2026-05-08 02:06 -5.75678 -35.44579 1586 ft 141 kts 99°
2026-05-08 02:06 -5.75840 -35.43599 1400 ft 141 kts 99°
2026-05-08 02:06 -5.75998 -35.42622 1215 ft 141 kts 99°
2026-05-08 02:06 -5.76155 -35.41649 1031 ft 142 kts 99°
2026-05-08 02:07 -5.76322 -35.40671 848 ft 144 kts 99°
2026-05-08 02:07 -5.76488 -35.39663 658 ft 146 kts 99°
2026-05-08 02:07 -5.76663 -35.38662 479 ft 147 kts 99°
2026-05-08 02:07 -5.76823 -35.37641 312 ft 147 kts 98°
2026-05-08 02:08 -5.76970 -35.36706 291 ft 108 kts 99°
2026-05-08 02:08 -5.77060 -35.36187 291 ft 62 kts 99°
2026-05-08 02:08 -5.77131 -35.35748 291 ft 64 kts 99°
2026-05-08 02:08 -5.77180 -35.35435 291 ft 23 kts 99°
2026-05-08 02:09 -5.77152 -35.35330 291 ft 16 kts 22°
2026-05-08 02:09 -5.77060 -35.35320 291 ft 11 kts 345°
2026-05-08 02:09 -5.77024 -35.35354 291 ft 8 kts 299°
2026-05-08 02:09 -5.77007 -35.35424 291 ft 12 kts 280°
2026-05-08 02:10 -5.76990 -35.35527 291 ft 17 kts 280°
2026-05-08 02:10 -5.76969 -35.35659 290 ft 20 kts 279°
2026-05-08 02:10 -5.76945 -35.35803 291 ft 21 kts 279°
2026-05-08 02:10 -5.76923 -35.35942 291 ft 19 kts 279°
2026-05-08 02:11 -5.76901 -35.36079 291 ft 20 kts 279°
2026-05-08 02:11 -5.76877 -35.36228 291 ft 19 kts 279°
2026-05-08 02:11 -5.76854 -35.36371 291 ft 22 kts 279°
2026-05-08 02:11 -5.76832 -35.36509 291 ft 19 kts 279°
2026-05-08 02:12 -5.76812 -35.36632 291 ft 18 kts 279°
2026-05-08 02:12 -5.76793 -35.36754 291 ft 18 kts 279°
2026-05-08 02:12 -5.76771 -35.36892 291 ft 21 kts 279°
2026-05-08 02:12 -5.76748 -35.37033 291 ft 19 kts 279°
2026-05-08 02:13 -5.76727 -35.37163 291 ft 18 kts 279°
2026-05-08 02:13 -5.76692 -35.37253 291 ft 12 kts 336°
2026-05-08 02:13 -5.76613 -35.37249 291 ft 10 kts
2026-05-08 02:13 -5.76544 -35.37252 291 ft 7 kts 328°
2026-05-08 02:14 -5.76530 -35.37264 291 ft 0 kts 323°
2026-05-08 02:14 -5.76520 -35.37268 291 ft 2 kts 345°
2026-05-08 02:14 -5.76501 -35.37269 291 ft 3 kts
2026-05-08 02:14 -5.76476 -35.37266 291 ft 3 kts
2026-05-08 02:15 -5.76454 -35.37262 291 ft 2 kts
2026-05-08 02:15 -5.76452 -35.37262 291 ft 0 kts